Location: Unspecified
(0.0000°N, 0.0000°E)
Time: 06:30:21
(UTC+02:00)

ARIANE DEB (SPELDA) - Visible Passes

Search period start: 03 September 2015 00:00
Search period end: 13 September 2015 00:00
Orbit: 313 x 33102 km, 3.7° (Epoch: 01 September)

Date Brightness Start Highest point End Pass type
(mag) Time Alt. Az. Time Alt. Az. Time Alt. Az.
03 Sep 3.8 11:30:49 10° W 11:39:01 54° N 11:41:34 10° ENE visible
03 Sep 7.7 21:48:30 10° W 06:34:02 90° N 06:53:06 10° E visible
04 Sep 5.7 16:56:34 10° W 17:01:49 84° N 01:43:41 10° E visible
05 Sep 7.2 22:20:18 10° W 07:09:16 88° N 07:23:27 10° E visible
06 Sep 6.1 17:26:25 10° W 17:33:02 87° N 02:19:56 10° E visible
07 Sep 6.7 22:52:25 10° W 07:42:30 86° N 07:53:22 10° E visible
08 Sep 6.6 17:56:04 10° W 18:04:28 90° NNE 02:53:56 10° E visible
09 Sep 6.2 23:25:04 10° W 08:14:24 84° N 08:22:53 10° E visible
10 Sep 7.0 18:25:32 10° W 18:36:18 88° S 03:26:24 10° E visible
11 Sep 5.8 23:58:36 10° W 08:45:19 81° N 08:52:01 10° E visible
